Live-Position
3D-Globus wird geladen...
Über Starlink 33825
Group: 3 satellites
Beschreibung wird geladen...
Nächste Überflüge
Passes for default location (London). Set your location on the main map for personalized predictions.
Höhenverlauf
Loading altitude history...
No altitude history available
Zweizeiliger Elementsatz
1 63505U 25071N 26124.60083848 .00012814 00000-0 44416-3 0 9994
2 63505 53.1588 239.9683 0001257 73.7565 286.3574 15.30190232 61333
Epoch: 4. Mai 2026 •
Age: 6 hours
Aktueller Status
Höhe 487.7 km
Geschwindigkeit 7.62 km/s
Subsatellitenpunkt -36.33°S,
72.32°W
Startdatum 7. Apr. 2025
Alter 1 years
Typ internet
Startgruppe
Falcon 9 •
Group 11-11 •
27 satellites
Starlink 33828
63493
Starlink 33819 63494
Starlink 33845 63495
Starlink 33829 63496
Starlink 33815 63497
Starlink 33833 63498
Starlink 33534 63499
Starlink 33838 63500
Starlink 33837 63501
Starlink 33818 63502
Starlink 33583 63503
Starlink 33811 63504
Starlink 33792 63506
Starlink 33843 63507
Starlink 33809 63508
Starlink 33678 63509
Starlink 33764 63510
Starlink 33804 63511
Starlink 33751 63512
Starlink 33750 63513
...and 6 more
Technische Details
Klassifizierung Payload
Masse 575.00 kg
Trockenmasse 530.00 kg
Gesamtmasse 575.00 kg
Länge 0.30 m
Durchmesser 4.10 m
Spannweite 29.00 m
Form Box + pan
Hersteller SPXS
Bus-Typ Starlink V2MO
Phasenstatus In Orbit
Besitzer/Staat SPXS/US
Most Searched
Loading...